TimePST,TemperatureF,Dew PointF,Humidity,Sea Level PressureIn,VisibilityMPH,Wind Direction,Wind SpeedMPH,Gust SpeedMPH,PrecipitationIn,Events,Conditions,WindDirDegrees,DateUTC
12:10 AM,55.4,48.2,77,30.22,10.0,South,8.1,-,0.00,Rain,Light Rain,170,2013-03-02 08:10:00
12:53 AM,55.4,46.4,72,30.21,10.0,South,9.2,-,N/A,,Overcast,170,2013-03-02 08:53:00
1:53 AM,55.0,48.0,77,30.23,10.0,South,8.1,-,0.00,Rain,Light Rain,170,2013-03-02 09:53:00
2:53 AM,55.9,48.0,75,30.20,10.0,SSE,10.4,-,0.00,,Overcast,160,2013-03-02 10:53:00
3:53 AM,57.2,48.2,72,30.15,10.0,SSE,12.7,21.9,N/A,,Overcast,160,2013-03-02 11:53:00
4:53 AM,57.0,46.9,69,30.15,10.0,SSE,16.1,25.3,0.00,Rain,Light Rain,150,2013-03-02 12:53:00
5:53 AM,55.9,46.9,72,30.15,10.0,SSE,11.5,21.9,0.00,,Overcast,160,2013-03-02 13:53:00
6:53 AM,57.2,46.4,67,30.11,10.0,SSE,13.8,21.9,N/A,,Overcast,160,2013-03-02 14:53:00
7:53 AM,57.0,46.0,67,30.12,10.0,South,13.8,24.2,N/A,,Overcast,170,2013-03-02 15:53:00
8:53 AM,55.9,46.0,69,30.11,10.0,South,11.5,20.7,N/A,,Overcast,170,2013-03-02 16:53:00
9:53 AM,57.9,46.0,65,30.08,10.0,South,16.1,25.3,N/A,,Overcast,170,2013-03-02 17:53:00
10:53 AM,57.9,46.0,65,30.06,10.0,South,13.8,26.5,N/A,,Overcast,170,2013-03-02 18:53:00
11:53 AM,57.0,46.0,67,30.05,10.0,South,16.1,25.3,0.00,,Overcast,170,2013-03-02 19:53:00
12:53 PM,57.0,46.0,67,30.02,10.0,SSE,19.6,25.3,N/A,,Overcast,160,2013-03-02 20:53:00
1:38 PM,53.6,46.4,77,30.00,10.0,SSW,9.2,21.9,N/A,,Overcast,210,2013-03-02 21:38:00
1:53 PM,53.1,46.0,77,30.03,10.0,SSW,8.1,17.3,N/A,,Overcast,200,2013-03-02 21:53:00
2:07 PM,53.6,46.4,77,30.01,5.0,Variable,6.9,-,0.01,Rain,Light Rain,0,2013-03-02 22:07:00
2:19 PM,51.8,46.4,82,30.02,2.0,West,10.4,17.3,0.04,Rain,Rain,260,2013-03-02 22:19:00
2:27 PM,50.0,44.6,82,30.04,1.5,West,8.1,17.3,0.09,Rain,Rain,260,2013-03-02 22:27:00
2:44 PM,48.2,44.6,87,30.03,3.0,Variable,4.6,-,0.13,Rain,Light Rain,0,2013-03-02 22:44:00
2:53 PM,48.9,44.1,83,30.06,4.0,South,5.8,-,0.14,Rain,Light Rain,180,2013-03-02 22:53:00
3:19 PM,48.2,44.6,87,30.04,2.5,Variable,4.6,-,0.05,Rain,Light Rain,0,2013-03-02 23:19:00
3:26 PM,48.2,44.6,87,30.05,3.0,Variable,5.8,-,0.06,Rain,Light Rain,0,2013-03-02 23:26:00
3:41 PM,48.2,42.8,82,30.06,4.0,SSW,5.8,-,0.09,Rain,Light Rain,210,2013-03-02 23:41:00
3:48 PM,48.2,42.8,82,30.05,7.0,South,4.6,-,0.10,Rain,Light Rain,190,2013-03-02 23:48:00
3:53 PM,48.9,43.0,80,30.08,8.0,Variable,4.6,-,0.10,Rain,Light Rain,0,2013-03-02 23:53:00
4:30 PM,50.0,44.6,82,30.05,10.0,South,8.1,-,0.01,Rain,Light Rain,180,2013-03-03 00:30:00
4:53 PM,48.9,42.1,77,30.08,10.0,South,9.2,-,0.01,,Overcast,170,2013-03-03 00:53:00
5:53 PM,48.9,42.1,77,30.09,10.0,Variable,5.8,-,0.01,Rain,Light Rain,0,2013-03-03 01:53:00
6:04 PM,48.2,41.0,76,30.07,10.0,Calm,Calm,-,0.00,,Overcast,0,2013-03-03 02:04:00
6:53 PM,48.9,41.0,74,30.12,10.0,West,5.8,-,0.00,,Overcast,280,2013-03-03 02:53:00
7:53 PM,48.0,41.0,77,30.13,10.0,Calm,Calm,-,N/A,,Overcast,0,2013-03-03 03:53:00
8:53 PM,48.0,37.9,68,30.15,10.0,West,6.9,-,0.00,Rain,Light Rain,270,2013-03-03 04:53:00
9:53 PM,45.0,39.0,80,30.17,10.0,Variable,3.5,-,0.01,Rain,Light Rain,0,2013-03-03 05:53:00
10:00 PM,44.6,39.2,81,30.15,10.0,Variable,3.5,-,0.00,,Overcast,0,2013-03-03 06:00:00
10:53 PM,45.0,37.9,76,30.17,10.0,South,3.5,-,0.00,,Mostly Cloudy,170,2013-03-03 06:53:00
11:53 PM,42.1,37.0,82,30.18,10.0,Calm,Calm,-,N/A,,Scattered Clouds,0,2013-03-03 07:53:00